Location: Camps Bay
(33.9517°S, 18.3844°E)
Time: 10:48:02
(UTC+00:00)

Cosmos 1758 - Pass Details

Date: 18 January 2020
Orbit: 540 x 563 km, 82.5° (Epoch: 18 February)

Event Time Altitude Azimuth Distance (km) Brightness Sun altitude
Rises 03:12:07 0° 186° (S) 2,791 7.3 -8.3°
Reaches altitude 10° 03:14:19 10° 185° (S) 1,885 6.4 -7.9°
Maximum altitude 03:18:29 82° 98° (E) 580 3.5 -7.2°
Drops below altitude 10° 03:22:34 10° 8° (N) 1,850 5.8 -6.5°
Sets 03:24:43 0° 7° (N) 2,734 6.6 -6.1°
